Location: Cuzcurrita-R�o Tir�n
(42.5415°N, 2.9642°W)
Time: 21:41:04
(UTC+00:00)

CZ-4C R/B - Pass Details

Date: 17 January 2021
Orbit: 617 x 1385 km, 63.4° (Epoch: 02 March)

Event Time Altitude Azimuth Distance (km) Brightness Sun altitude
Rises 19:03:02 0° 269° (W) 3,142 6.7 -21.1°
Reaches altitude 10° 19:05:58 10° 288° (WNW) 2,335 5.4 -21.6°
Maximum altitude 19:09:43 19° 333° (NNW) 1,945 4.3 -22.3°
Enters shadow 19:13:44 11° 15° (NNE) 2,625 4.5 -23.1°
